Regional Weather Roundup
Issued by NWS Sioux Falls, SD

Home | Current Version | Previous Version | Graphics & Text | Print | Product List | Glossary Off
Versions: 1 2 3 4 5 6 7 8 9 10 11 12 13 14 15 16 17 18 19 20 21 22 23 24 25 26 27 28 29 30 31 32 33 34 35 36 37 38 39 40 41 42 43 44 45 46 47 48 49 50

000
ASUS43 KFSD 141810
RWRFSD

WEATHER ROUNDUP FOR SE SOUTH DAKOTA/SW MINNESOTA/NW IOWA
NATIONAL WEATHER SERVICE SIOUX FALLS SD
1200 PM CST SUN FEB 14 2016

NOTE: "FAIR" INDICATES FEW OR NO CLOUDS BELOW 12,000 FEET WITH NO
SIGNIFICANT WEATHER AND OR OBSTRUCTIONS TO VISIBILITY.


SDZ038>040-050-052>070-141900-
SOUTHEAST SOUTH DAKOTA

CITY           SKY/WX    TMP DP  RH WIND       PRES   REMARKS
BROOKINGS      FLURRIES  18  12  77 S14       29.80F WCI   4
CHAMBERLAIN    CLOUDY    36  32  85 NW8       29.79F
6HR MIN TEMP:  21; 6HR MAX TEMP:  36;

HURON          CLOUDY    20  16  84 S8        29.81F WCI  10
6HR MIN TEMP:  15; 6HR MAX TEMP:  20;

MADISON        CLOUDY    16  16 100 S12       29.79F WCI   3
MITCHELL       CLOUDY    21  17  84 S7        29.84S WCI  12
6HR MIN TEMP:  16; 6HR MAX TEMP:  21;

SIOUX FALLS    CLOUDY    19  14  81 S9        29.83F WCI   8
6HR MIN TEMP:  14; 6HR MAX TEMP:  19; 6HR PCP: TRACE;

WINNER         FAIR      41  31  67 NW7       29.80S
YANKTON        CLOUDY    21  16  79 CALM      29.85S
$$

MNZ071-072-080-081-089-090-097-098-141900-
SOUTHWEST MINNESOTA

CITY           SKY/WX    TMP DP  RH WIND       PRES   REMARKS
FAIRMONT       CLOUDY    18  10  73 SE20      29.89F WCI   1
JACKSON        FLURRIES  19  12  73 S10G17    29.87F WCI   8
LUVERNE        CLOUDY    21  14  73 S9        29.85F WCI  11
MARSHALL       FLURRIES  20  12  71 S16       29.87F WCI   6
6HR MIN TEMP:  14; 6HR MAX TEMP:  20; 6HR PCP: TRACE;

MONTEVIDEO     LGT SNOW  19  12  73 S12G18    29.89F WCI   7
PIPESTONE      CLOUDY    19  10  68 S13       29.81F WCI   7
REDWOOD FALLS  LGT SNOW  18  13  80 SE18      29.91F WCI   2
TRACY          SUNNY     20  14  77 S13       29.86F WCI   7
WINDOM         FLURRIES  18  12  79 SE10      29.87F WCI   6
WORTHINGTON    CLOUDY    16  10  79 S13       29.85F WCI   2
$$

IAZ001>003-012>014-020>022-031-032-NEZ013-014-SDZ071-141900-
NORTHWEST IOWA

CITY           SKY/WX    TMP DP  RH WIND       PRES   REMARKS
CHEROKEE       CLOUDY    21  17  85 S9        29.87S WCI  10
DENISON        CLOUDY    23  16  74 S9G15     29.83F WCI  13
ESTHERVILLE    LGT SNOW  16  13  88 SE17      29.88F FOG     WCI   0
LE MARS        CLOUDY    21  18  86 S8        29.86F WCI  12
ORANGE CITY    CLOUDY    19  18  93 S9        29.83F WCI   9
SHELDON        CLOUDY    18  16  93 SE13      29.83F WCI   4
SIOUX CITY     CLOUDY    24  17  74 S5        29.86F WCI  18
6HR MIN TEMP:  19; 6HR MAX TEMP:  24; 6HR PCP: TRACE;

SPENCER        CLOUDY    18  12  77 SE15      29.86F WCI   4
6HR MIN TEMP:  13; 6HR MAX TEMP:  18; 6HR PCP: TRACE;

STORM LAKE     PTSUNNY   18  18 100 SE12      29.85F WCI   5
$$

ABBREVIATIONS USED IN REMARKS
   TC - TEMPERATURE IN CELSIUS
  WCI - WIND CHILL INDEX
   HX - HEAT INDEX
  VSB - VISIBILITY




USA.gov is the U.S. government's official web portal to all federal, state and local government web resources and services.